STARLINK-2270, 48000

Orbit data source: Space-Track

STARLINK-2270, 48000 is a payload satellite owned by SpaceX/Seattle (US) in LEO that was launched on Wed, 24 Mar 2021 UTC via an FALCON 9 launch vehicle from the Air Force Eastern Test Range (AFETR). Payload-class satellites include a variety of spacecraft equipped with specific instruments for various scientific and technological missions. These include communications satellites like Starlink; space stations such as the ISS; scientific satellites like the Hubble; Earth observation satellites from companies like Planet Labs, Umbra, and HawkEye 360; GPS; miniature CubeSats for education and research; and military/defense satellites.

Loading next visibility...
Identifier
48000, 2021-024Z
Orbit
LEO
Country
Flag of USUS
Related business
Manufacturer
SpaceX/Seattle
Mission
Operational Commercial Communications
Bus & Motor
STARLINK, Unknown motor
Mass
260 kg wet, ~248 kg dry
Launch date (UTC)
2021-03-24 (5 years ago)
Launch vehicle
FALCON 9
Launch site
Air Force Eastern Test Range (AFETR)
Object type
Payload
Rocket body
Debris
Shape & HBR
Box + 1 Pan, 10.1 m
Radar Cross Section
13.562 m², Large (>1 m²)

Expand to show TLE details & history
Last TLE update: 9 hours ago

TLE from 9 hours ago
0 STARLINK-2270
1 48000U 21024Z   25347.01952272 -.00000677  00000-0 -26577-4 0  9993
2 48000  53.0539 270.8988 0001334  69.7837 290.3295 15.06381486262778
Epoch: 2025-12-13T00:28Z
TLE epoch observation values (Epoch: 2025-12-13T00:28:06.763Z)
Latitude
-0.00002°
Longitude
-178.0822°
Altitude
547.827 km
Speed
7.589 km/s
True Right ascension
18h 03m 35s
True Declination
0° 00' 00"
Sunlit
Object was in daylight at epoch
Visualization orbit readout
Latitude
Unknown
Longitude
Unknown
Altitude
Unknown
Speed
Unknown
Apparent Right ascension
Unknown
Apparent Declination
Unknown
Sunlit
N/A
Visualization observer readout
Local Sidereal Time
07:28:05
Azimuth
Unknown
Elevation
Unknown
Doppler factor
Unknown
Orbital elements
Apogee altitude
548.463 km
Perigee altitude
546.615 km
Semi-major axis
6,925.676 km
Eccentricity
0.00013
Inclination
53.0539°
RAAN
270.8988°
Arg. of periapsis
69.7837°
True anomaly
290.31516°
Mean anomaly
290.3295°
Eccentric anomaly
290.32233°
Mean motion
3.76574 °/min
Orbital period
95.6 mins
BSTAR
-0.000026577
Loading maneuver chart data...
Computing Atmospheric mass density...

Documentation

Showing up to 5 results
|